Starlink 1153

operational
NORAD ID: 45080 Int'l Des: 2020-006 Owner: SPXS Country: US Constellation: starlink
LEOCIRCULARSTARLINK_TYPE

Starlink 1153について

説明を読み込み中...

リアルタイム位置

3D地球を読み込み中...

次回通過

高度履歴

Altitude vs Time

uPlot chart will show altitude changes over time

軌道要素

1 45080U 20006AN 25352.77278232 -.00001912 00000-0 -10947-3 0 9999
2 45080 53.0554 269.8677 0002001 88.3830 271.7389 15.06399159324542
Epoch: Dec 18, 2025 • Age: 10 hours

現在のステータス

高度 551.6 km
速度 7.59 km/s
衛星直下点 49.35°N, 174.34°E
打ち上げ日 Jan 29, 2020
運用期間 5.8 years
タイプ internet

技術仕様

分類 Payload
質量 260.00 kg
乾燥質量 248.00 kg
総質量 260.00 kg
長さ 0.20 m
直径 2.80 m
スパン 9.00 m
形状 Box + pan
製造者 SPXS
バスタイプ Starlink
フェーズステータス In Orbit
所有者/国 SPXS/US

大規模コンステレーション

Loading constellations...